Weather History for LHBP - July, 2013

Change the Weather History Date:

Monday, July 8, 2013

  Actual Average Record
Temperature  
Mean Temperature 74 °F -  
Max Temperature 84 °F 78 °F 98 °F (2015)
Min Temperature 64 °F 57 °F 42 °F (2003)
Cooling Degree Days 9    
Growing Degree Days 24 (Base 50)    
Moisture  
Dew Point 56 °F    
Average Humidity 53    
Maximum Humidity 77    
Minimum Humidity 37    
Precipitation  
Precipitation 0.00 in - - ()
Sea Level Pressure  
Sea Level Pressure 30.24 in    
Wind  
Wind Speed 6 mph ()    
Max Wind Speed 10 mph    
Max Gust Speed -    
Averages and records for this station are not official NWS values.
T = Trace of Precipitation, MM = Missing Value Source: Averaged Metar Reports

Daily Weather History Graph

Daily Weather History Graph

Search for Another Location

Airport or City:

Trip Planner

Search our weather history database for the weather conditions in past years. The results will help you decide how hot, cold, wet, or windy it might be!

Date:

Astronomy

Jul. 08, 2013 Rise Set
Actual Time 4:55 AM CEST 8:40 PM CEST
Civil Twilight 4:15 AM CEST 9:20 PM CEST
Nautical Twilight 3:21 AM CEST 10:13 PM CEST
Astronomical Twilight 2:04 AM CEST 11:29 PM CEST
Moon 5:13 AM CEST (7/8) 8:24 PM CEST (7/8)
Length of Visible Light 17h 04m
Length of Day
15h 45m
New Moon, 0% of the Moon is Illuminated
Jul 8
New Moon
Jul 16
First Quarter
Jul 22
Full
Jul 29
Last Quarter
Aug 6
New

Hourly Weather History & Observations

Time (CEST) Temp. Heat Index Dew Point Humidity Pressure Visibility Wind Dir Wind Speed Gust Speed Precip Events Conditions
12:00 AM 71.6 °F - 57.2 °F 60% 30.24 in - ENE 8.1 mph - N/A   Clear
12:30 AM 69.8 °F - 57.2 °F 64% 30.27 in - NNE 4.6 mph - N/A   Clear
1:00 AM 69.8 °F - 57.2 °F 64% 30.27 in - NNW 4.6 mph - N/A   Clear
1:30 AM 66.2 °F - 57.2 °F 73% 30.27 in - Variable 3.5 mph - N/A   Clear
2:00 AM 69.8 °F - 57.2 °F 64% 30.24 in - NNE 5.8 mph - N/A   Clear
2:30 AM 68.0 °F - 57.2 °F 68% 30.24 in - North 4.6 mph - N/A   Clear
3:00 AM 68.0 °F - 57.2 °F 68% 30.24 in - North 4.6 mph - N/A   Clear
3:30 AM 66.2 °F - 57.2 °F 73% 30.24 in - North 5.8 mph - N/A   Clear
4:00 AM 66.2 °F - 55.4 °F 68% 30.24 in - NNW 5.8 mph - N/A   Clear
4:30 AM 66.2 °F - 57.2 °F 73% 30.24 in - NNW 5.8 mph - N/A   Clear
5:00 AM 64.4 °F - 57.2 °F 77% 30.24 in - NW 4.6 mph - N/A   Clear
5:30 AM 64.4 °F - 57.2 °F 77% 30.24 in - Variable 3.5 mph - N/A   Clear
6:00 AM 66.2 °F - 57.2 °F 73% 30.24 in - NNW 5.8 mph - N/A   Clear
6:30 AM 68.0 °F - 57.2 °F 68% 30.24 in - NNW 6.9 mph - N/A   Clear
7:00 AM 69.8 °F - 57.2 °F 64% 30.24 in - North 5.8 mph - N/A   Clear
7:30 AM 69.8 °F - 55.4 °F 60% 30.27 in - North 8.1 mph - N/A   Clear
8:00 AM 71.6 °F - 55.4 °F 57% 30.27 in - North 5.8 mph - N/A   Clear
8:30 AM 71.6 °F - 55.4 °F 57% 30.27 in - NW 4.6 mph - N/A   Clear
9:00 AM 75.2 °F - 55.4 °F 50% 30.27 in - North 8.1 mph - N/A   Clear
9:30 AM 75.2 °F - 55.4 °F 50% 30.27 in - North 6.9 mph - N/A   Clear
10:00 AM 77.0 °F - 53.6 °F 44% 30.27 in - ENE 6.9 mph - N/A   Clear
10:30 AM 77.0 °F - 55.4 °F 47% 30.27 in - ENE 5.8 mph - N/A   Clear
11:00 AM 78.8 °F - 55.4 °F 44% 30.27 in - Variable 6.9 mph - N/A   Clear
11:30 AM 80.6 °F 80.8 °F 57.2 °F 45% 30.27 in - NE 8.1 mph - N/A   Clear
12:00 PM 80.6 °F 80.5 °F 55.4 °F 42% 30.27 in - Variable 6.9 mph - N/A   Clear
12:30 PM 82.4 °F 82.0 °F 57.2 °F 42% 30.27 in - North 6.9 mph - N/A   Clear
1:00 PM 82.4 °F 82.0 °F 57.2 °F 42% 30.27 in - NNW 6.9 mph - N/A   Clear
1:30 PM 80.6 °F 80.5 °F 55.4 °F 42% 30.24 in - North 8.1 mph - N/A   Clear
2:00 PM 82.4 °F 81.7 °F 55.4 °F 39% 30.24 in - NNW 8.1 mph - N/A   Clear
2:30 PM 82.4 °F 81.7 °F 55.4 °F 39% 30.24 in - NNW 6.9 mph - N/A   Clear
3:00 PM 84.2 °F 83.0 °F 55.4 °F 37% 30.24 in - NNW 9.2 mph - N/A   Clear
3:30 PM 84.2 °F 83.5 °F 57.2 °F 40% 30.21 in - North 10.4 mph - N/A   Clear
4:00 PM 82.4 °F 82.0 °F 57.2 °F 42% 30.21 in - North 10.4 mph - N/A   Clear
4:30 PM 82.4 °F 81.7 °F 55.4 °F 39% 30.21 in - NNW 10.4 mph - N/A   Clear
5:00 PM 82.4 °F 82.0 °F 57.2 °F 42% 30.21 in - NNE 9.2 mph - N/A   Clear
5:30 PM 82.4 °F 82.0 °F 57.2 °F 42% 30.21 in - North 10.4 mph - N/A   Clear
6:00 PM 82.4 °F 82.0 °F 57.2 °F 42% 30.21 in - North 9.2 mph - N/A   Clear
6:30 PM 82.4 °F 82.0 °F 57.2 °F 42% 30.21 in - NNE 10.4 mph - N/A   Clear
7:00 PM 80.6 °F 80.5 °F 55.4 °F 42% 30.21 in - NNE 10.4 mph - N/A   Clear
7:30 PM 80.6 °F 80.5 °F 55.4 °F 42% 30.18 in - NNE 9.2 mph - N/A   Clear
8:00 PM 78.8 °F - 55.4 °F 44% 30.18 in - North 6.9 mph - N/A   Clear
8:30 PM 75.2 °F - 55.4 °F 50% 30.21 in - North 5.8 mph - N/A   Clear
9:00 PM 73.4 °F - 57.2 °F 57% 30.21 in - North 4.6 mph - N/A   Clear
9:30 PM 73.4 °F - 55.4 °F 53% 30.21 in - North 5.8 mph - N/A   Clear
10:00 PM 73.4 °F - 57.2 °F 57% 30.24 in - NNE 5.8 mph - N/A   Clear
10:30 PM 73.4 °F - 55.4 °F 53% 30.24 in - ENE 5.8 mph - N/A   Clear
11:00 PM 73.4 °F - 55.4 °F 53% 30.24 in - ENE 8.1 mph - N/A   Clear
11:30 PM 71.6 °F - 53.6 °F 53% 30.24 in - ENE 9.2 mph - N/A   Clear